This is the latest recevied weather packets stored in our database for station/object 5B4APJ-13. If no packets are shown the sender has not sent any weather packets the latest 10 day(s).
| Time | Temp. | Humidity | Pressure | Rain* | Wind** | Luminosity | Snow |
|---|---|---|---|---|---|---|---|
| 1777672327 | 14.44° C | 85% | 1011.7 hPa | 0 mm | 1.34 m/s, 253° | 0 W/m² | - |
| 1777672026 | 13.89° C | 85% | 1012 hPa | 0 mm | 0.89 m/s, 253° | 0 W/m² | - |
| 1777671726 | 13.89° C | 84% | 1011.9 hPa | 0 mm | 0.89 m/s, 251° | 0 W/m² | - |
| 1777671426 | 14.44° C | 82% | 1011.7 hPa | 0 mm | 0.89 m/s, 256° | 0 W/m² | - |
| 1777671126 | 14.44° C | 84% | 1012 hPa | 0 mm | 0.89 m/s, 244° | 0 W/m² | - |
| 1777670827 | 14.44° C | 83% | 1011.8 hPa | 0 mm | 0.45 m/s, 241° | 0 W/m² | - |
| 1777670526 | 14.44° C | 85% | 1011.8 hPa | 0 mm | 1.34 m/s, 240° | 0 W/m² | - |
| 1777670226 | 13.89° C | 88% | 1011.8 hPa | 0 mm | 0.89 m/s, 251° | 0 W/m² | - |
| 1777669927 | 13.89° C | 87% | 1011.9 hPa | 0 mm | 0.89 m/s, 256° | 0 W/m² | - |
| 1777669627 | 14.44° C | 87% | 1011.7 hPa | 0 mm | 0.89 m/s, 249° | 0 W/m² | - |
| 1777669326 | 14.44° C | 88% | 1011.4 hPa | 0 mm | 0.45 m/s, 160° | 0 W/m² | - |
| 1777669025 | 14.44° C | 88% | 1011.7 hPa | 0 mm | 0.45 m/s, 160° | 0 W/m² | - |
| 1777668726 | 14.44° C | 88% | 1011.4 hPa | 0 mm | 0.45 m/s, 160° | 0 W/m² | - |
| 1777668425 | 14.44° C | 87% | 1011.4 hPa | 0 mm | 0.45 m/s, 160° | 0 W/m² | - |
| 1777668126 | 14.44° C | 88% | 1011.5 hPa | 0 mm | 0.45 m/s, 160° | 0 W/m² | - |
| 1777667825 | 13.89° C | 88% | 1011.6 hPa | 0 mm | 0.45 m/s, 160° | 0 W/m² | - |
| 1777667526 | 14.44° C | 86% | 1011.6 hPa | 0 mm | 0.45 m/s, 119° | 0 W/m² | - |
| 1777667225 | 14.44° C | 86% | 1011.5 hPa | 0 mm | 0 m/s | 0 W/m² | - |
| 1777666926 | 14.44° C | 86% | 1011.5 hPa | 0 mm | 0 m/s | 0 W/m² | - |
| 1777666626 | 14.44° C | 85% | 1011.6 hPa | 0 mm | 0 m/s | 0 W/m² | - |
| 1777666326 | 14.44° C | 85% | 1011.4 hPa | 0 mm | 0 m/s | 0 W/m² | - |
| 1777666026 | 14.44° C | 83% | 1011.4 hPa | 0 mm | 0 m/s | 0 W/m² | - |
| 1777665726 | 15° C | 83% | 1011.3 hPa | 0 mm | 0 m/s | 0 W/m² | - |
| 1777665426 | 15° C | 83% | 1011.3 hPa | 0 mm | 0 m/s | 0 W/m² | - |
| 1777665127 | 15° C | 83% | 1011.6 hPa | 0 mm | 0 m/s | 0 W/m² | - |
* Rain latest hour (hover to see other rain measurements)
** Current wind speed in m/s (hover to see current wind gust speed)